Regional Weather Roundup
Issued by NWS

Home | Current Version | Previous Version | Graphics & Text | Print | Product List | Glossary On
Versions: 1 2 3 4 5 6 7 8 9 10 11 12 13 14 15 16 17 18 19 20 21 22 23 24 25 26 27 28 29 30 31 32 33 34 35 36 37 38 39 40 41 42 43 44 45 46 47 48 49 50
000
ASUS43 KOAX 280202
RWRNE

WEATHER ROUNDUP FOR NEBRASKA
NATIONAL WEATHER SERVICE OMAHA NE
900 PM CDT WED MAY 27 2015

NOTES: SATELLITE DATA IS BEING USED TO AUGMENT CLOUD COVER ABOVE
       12000 FEET.
       "FAIR" INDICATES FEW OR NO CLOUDS BELOW 12,000 FEET WITH NO
       SIGNIFICANT WEATHER AND/OR OBSTRUCTIONS TO VISIBILITY.

  * THESE STATIONS DO NOT REPORT WEATHER SUCH AS RAIN...SNOW OR FOG.

NEZ001>004-019>022-054>056-280300-
NEBRASKA PANHANDLE

CITY           SKY/WX    TMP DP  RH WIND       PRES   REMARKS
SCOTTSBLUFF    CLEAR     64  56  75 SE12      29.97S
ALLIANCE       PTCLDY    63  55  75 S18       29.97F
CHADRON        PTCLDY    66  56  70 S3        29.94R
SIDNEY         PTCLDY    61  53  75 SE18G30   30.05R
$$

NEZ057>060-069>072-079>082-280300-
SOUTHWEST NEBRASKA

CITY           SKY/WX    TMP DP  RH WIND       PRES   REMARKS
NORTH PLATTE   LGT RAIN  66  57  72 S13       30.02F
IMPERIAL       CLOUDY    62  57  83 SE16G25   30.04F
LEXINGTON      LGT RAIN  68  58  68 S14       30.05R
MCCOOK         RAIN      64  61  90 SE21G28   30.03F FOG
$$

NEZ005>010-023>029-035>040-094-280300-
NORTH CENTRAL NEBRASKA

CITY           SKY/WX    TMP DP  RH WIND       PRES   REMARKS
VALENTINE      CLOUDY    68  55  63 S20       29.97S
AINSWORTH      CLOUDY    68  55  62 S13       30.01R
BROKEN BOW     CLOUDY    68  55  63 SE7       30.02R
ORD            CLOUDY    66  55  67 SW3       30.01S
$$

NEZ041-046>049-061>064-073>077-083>087-280300-
SOUTH CENTRAL NEBRASKA

CITY           SKY/WX    TMP DP  RH WIND       PRES   REMARKS
GRAND ISLAND   CLOUDY    70  54  56 S9        30.04R
HASTINGS       CLOUDY    71  57  61 S8        30.05R
KEARNEY *      CLOUDY    68  57  68 S10       30.05R
$$

NEZ011>018-030>034-042>045-280300-
NORTHEAST NEBRASKA

CITY           SKY/WX    TMP DP  RH WIND       PRES   REMARKS
NORFOLK        MOCLDY    73  47  39 S10       30.02R
BLAIR          PTCLDY    73  47  39 SE6       30.03S
COLUMBUS *     CLOUDY    72  45  37 SE6       30.05R
FREMONT        PTCLDY    72  51  46 SE5       30.03S
TEKAMAH        MOCLDY    73  55  53 S7        30.02R
$$

NEZ050>053-065>068-078-088>093-280300-
SOUTHEAST NEBRASKA

CITY           SKY/WX    TMP DP  RH WIND       PRES   REMARKS
LINCOLN        PTCLDY    71  50  47 SE8       30.04R
OMAHA EPPLEY   MOCLDY    71  55  56 SE8       30.03R
NEBRASKA CITY  PTCLDY    70  47  44 S3        30.05R
PLATTSMOUTH    CLEAR     73  45  37 SE5       30.05R
$$

NEZ044-045-051>053-067-280300-
OMAHA AREA

CITY           SKY/WX    TMP DP  RH WIND       PRES   REMARKS
OMAHA EPPLEY   MOCLDY    71  55  56 SE8       30.03R
BLAIR          PTCLDY    73  47  39 SE6       30.03S
FREMONT        PTCLDY    72  51  46 SE5       30.03S
OFFUTT AFB     PTCLDY    71  52  51 CALM      30.03R
PLATTSMOUTH    CLEAR     73  45  37 SE5       30.05R
WAHOO          FAIR      69  54  57 S7        30.04R
$$



USA.gov is the U.S. government's official web portal to all federal, state and local government web resources and services.